TimeEEST,TemperatureF,Dew PointF,Humidity,Sea Level PressureIn,VisibilityMPH,Wind Direction,Wind SpeedMPH,Gust SpeedMPH,PrecipitationIn,Events,Conditions,WindDirDegrees,DateUTC
4:20 AM,57.2,55.4,94,29.98,-9999.0,Calm,Calm,-,N/A,,Clear,0,2012-10-21 01:20:00
5:50 AM,57.2,55.4,94,29.98,-9999.0,Calm,Calm,-,N/A,,Clear,0,2012-10-21 02:50:00
6:50 AM,57.2,53.6,88,29.98,-9999.0,Calm,Calm,-,N/A,,Clear,0,2012-10-21 03:50:00
7:20 AM,55.4,53.6,94,29.98,6.2,Calm,Calm,-,N/A,,Scattered Clouds,0,2012-10-21 04:20:00
7:50 AM,57.2,53.6,88,29.98,6.2,NW,4.6,-,N/A,,Scattered Clouds,320,2012-10-21 04:50:00
8:20 AM,57.2,53.6,88,30.01,5.0,Calm,Calm,-,N/A,,Partly Cloudy,0,2012-10-21 05:20:00
8:50 AM,59.0,53.6,82,30.01,5.0,NNW,5.8,-,N/A,,Scattered Clouds,330,2012-10-21 05:50:00
9:20 AM,60.8,55.4,82,30.01,5.0,NNW,5.8,-,N/A,,Partly Cloudy,330,2012-10-21 06:20:00
9:50 AM,66.2,57.2,73,30.01,6.2,NNW,4.6,-,N/A,,Partly Cloudy,340,2012-10-21 06:50:00
10:20 AM,69.8,57.2,64,30.01,6.2,NNW,6.9,-,N/A,,Partly Cloudy,330,2012-10-21 07:20:00
10:50 AM,71.6,57.2,60,30.01,6.2,Calm,Calm,-,N/A,,Partly Cloudy,0,2012-10-21 07:50:00
11:20 AM,73.4,57.2,57,30.01,6.2,Calm,Calm,-,N/A,,Partly Cloudy,0,2012-10-21 08:20:00
11:50 AM,75.2,59.0,57,30.01,6.2,Calm,Calm,-,N/A,,Partly Cloudy,0,2012-10-21 08:50:00
12:20 PM,77.0,59.0,54,30.01,6.2,Calm,Calm,-,N/A,,Partly Cloudy,0,2012-10-21 09:20:00
12:50 PM,77.0,57.2,50,29.98,6.2,Calm,Calm,-,N/A,,Partly Cloudy,0,2012-10-21 09:50:00
1:20 PM,78.8,59.0,51,29.98,6.2,Calm,Calm,-,N/A,,Partly Cloudy,0,2012-10-21 10:20:00
1:50 PM,78.8,60.8,54,29.98,6.2,Calm,Calm,-,N/A,,Scattered Clouds,0,2012-10-21 10:50:00
2:20 PM,77.0,60.8,57,29.98,6.2,South,8.1,-,N/A,,Scattered Clouds,180,2012-10-21 11:20:00
2:50 PM,77.0,62.6,61,29.98,6.2,South,8.1,-,N/A,,Scattered Clouds,170,2012-10-21 11:50:00
3:20 PM,77.0,62.6,61,29.95,6.2,South,8.1,-,N/A,,Scattered Clouds,170,2012-10-21 12:20:00
3:50 PM,77.0,62.6,61,29.95,6.2,South,8.1,-,N/A,,Scattered Clouds,170,2012-10-21 12:50:00
4:20 PM,77.0,60.8,57,29.95,6.2,South,6.9,-,N/A,,Scattered Clouds,190,2012-10-21 13:20:00
4:50 PM,75.2,62.6,65,29.95,6.2,South,6.9,-,N/A,,Scattered Clouds,190,2012-10-21 13:50:00
5:20 PM,75.2,59.0,57,29.95,6.2,Calm,Calm,-,N/A,,Mostly Cloudy,0,2012-10-21 14:20:00
5:50 PM,75.2,60.8,61,29.92,6.2,WSW,6.9,-,N/A,Rain,Light Rain,240,2012-10-21 14:50:00
6:20 PM,73.4,62.6,69,29.92,6.2,West,8.1,-,N/A,,Scattered Clouds,280,2012-10-21 15:20:00
6:50 PM,69.8,62.6,78,29.95,6.2,NNE,12.7,-,N/A,,Scattered Clouds,20,2012-10-21 15:50:00
7:20 PM,68.0,62.6,83,29.95,6.2,NNE,6.9,-,N/A,,Scattered Clouds,30,2012-10-21 16:20:00
7:50 PM,68.0,60.8,78,29.95,6.2,NE,4.6,-,N/A,,Scattered Clouds,40,2012-10-21 16:50:00
8:20 PM,66.2,60.8,83,29.98,6.2,Calm,Calm,-,N/A,,Scattered Clouds,0,2012-10-21 17:20:00
8:50 PM,68.0,60.8,78,29.98,6.2,NW,4.6,-,N/A,,Scattered Clouds,320,2012-10-21 17:50:00
11:50 PM,62.6,59.0,88,30.01,6.2,Calm,Calm,-,N/A,,Partly Cloudy,0,2012-10-21 20:50:00